Вернуться в каталог

STARLINK-33721

АктивенСвязьVLEO
NORAD 63480·PAYLOAD·🇺🇸 United States

Запущен Apr 6, 2025 с Cape Canaveral Space Force Station

Loading…

Ближайшие Пролёты (ближайшие 24 часа)

TLE

СвежийSource: CelesTrak SupGP

Эпоха: Sep 14, 2026, 22:58 UTC

1 63480C 25070W   26257.95743056  .00037803  00000+0  13709-2 0  2575
2 63480  43.0027 267.2436 0001366 263.6175 132.4486 15.27519265    17

Отслеживайте STARLINK-33721 в реальном времени с AllMySat

Download on the App Store